Ankara, Turkey

12:16 AM +03 on October 19, 2017 (GMT +0300)
Esenboga

Weather History for LTAC - October, 2012

Change the Weather History Date:

Sunday, October 28, 2012

  Actual Average Record
Temperature  
Mean Temperature 52 °F -  
Max Temperature 70 °F 53 °F 75 °F (2004)
Min Temperature 35 °F 29 °F 26 °F (2011)
Degree Days  
Heating Degree Days 12    
Growing Degree Days 2 (Base 50)    
Moisture  
Dew Point 40 °F    
Average Humidity 67    
Maximum Humidity 93    
Minimum Humidity 25    
Precipitation  
Precipitation 0.00 in - - ()
Sea Level Pressure  
Sea Level Pressure 30.07 in    
Wind  
Wind Speed 3 mph ()    
Max Wind Speed 10 mph    
Max Gust Speed -    
Visibility 6.9 miles    
Events      
Averages and records for this station are not official NWS values.
T = Trace of Precipitation, MM = Missing Value Source: Averaged Metar Reports

Daily Weather History Graph

Daily Weather History Graph

Search for Another Location

Airport or City:

Trip Planner

Search our weather history database for the weather conditions in past years. The results will help you decide how hot, cold, wet, or windy it might be!

Date:

Astronomy

Oct. 28, 2012 Rise Set
Actual Time 6:12 AM EET 4:50 PM EET
Civil Twilight 5:44 AM EET 5:17 PM EET
Nautical Twilight 5:13 AM EET 5:49 PM EET
Astronomical Twilight 4:41 AM EET 6:21 PM EET
Moon 3:56 PM EET (10/28) 4:46 AM EET (10/28)
Length of Visible Light 11h 32m
Length of Day
10h 37m
Waxing Gibbous, 98% of the Moon is Illuminated
Oct 28
Waxing Gibbous
Oct 29
Full
Nov 7
Last Quarter
Nov 14
New
Nov 20
First Quarter

Hourly Weather History & Observations

Time (EET) Temp. Windchill Dew Point Humidity Pressure Visibility Wind Dir Wind Speed Gust Speed Precip Events Conditions
12:20 AM 44.6 °F - 39.2 °F 81% 30.04 in - Variable 1.2 mph - N/A   Clear
12:50 AM 42.8 °F - 37.4 °F 81% 30.04 in - Variable 1.2 mph - N/A   Clear
1:20 AM 41.0 °F 39.0 °F 35.6 °F 81% 30.04 in - NW 3.5 mph - N/A   Clear
1:50 AM 42.8 °F - 37.4 °F 81% 30.04 in - Variable 2.3 mph - N/A   Clear
2:20 AM 39.2 °F - 37.4 °F 93% 30.04 in - Variable 2.3 mph - N/A   Clear
2:50 AM 41.0 °F - 37.4 °F 87% 30.04 in - Variable 2.3 mph - N/A   Clear
3:00 AM 41 °F - 39 °F 90% 30.01 in 6 mi NW 2.3 mph - -  
3:20 AM 39.2 °F - 35.6 °F 87% 30.04 in - Variable 2.3 mph - N/A   Clear
3:50 AM 41.0 °F - 37.4 °F 87% 30.04 in - Calm Calm - N/A   Clear
3:20 AM 41.0 °F 39.0 °F 37.4 °F 87% 30.04 in - East 3.5 mph - N/A   Clear
3:50 AM 37.4 °F - 33.8 °F 87% 30.04 in - NW 2.3 mph - N/A   Clear
4:20 AM 37.4 °F - 35.6 °F 93% 30.06 in - Variable 2.3 mph - N/A   Clear
4:50 AM 37.4 °F - 35.6 °F 93% 30.06 in - Variable 1.2 mph - N/A   Clear
5:20 AM 37.4 °F 33.8 °F 33.8 °F 87% 30.06 in - NNE 4.6 mph - N/A   Clear
5:50 AM 39.2 °F - 35.6 °F 87% 30.06 in - Variable 2.3 mph - N/A   Clear
6:20 AM 37.4 °F - 35.6 °F 93% 30.06 in - Variable 2.3 mph - N/A   Clear
6:50 AM 35.6 °F 32.8 °F 33.8 °F 93% 30.06 in - West 3.5 mph - N/A   Clear
7:20 AM 39.2 °F - 35.6 °F 87% 30.09 in - WNW 2.3 mph - N/A   Clear
7:50 AM 42.8 °F - 37.4 °F 81% 30.09 in - Variable 2.3 mph - N/A   Clear
8:00 AM 42 °F - 38 °F 81% 30.12 in 12 mi South 2.3 mph - -   Partly Cloudy
8:20 AM 44.6 °F 43.1 °F 39.2 °F 81% 30.09 in - South 3.5 mph - N/A   Clear
8:50 AM 46.4 °F - 41.0 °F 81% 30.12 in - Variable 2.3 mph - N/A   Clear
9:20 AM 51.8 °F - 41.0 °F 67% 30.12 in 6.2 mi Variable 2.3 mph - N/A   Scattered Clouds
9:50 AM 55.4 °F - 41.0 °F 58% 30.09 in 6.2 mi Variable 2.3 mph - N/A   Scattered Clouds
10:20 AM 59.0 °F - 42.8 °F 55% 30.09 in 6.2 mi Variable 2.3 mph - N/A   Scattered Clouds
10:50 AM 62.6 °F - 42.8 °F 48% 30.09 in 6.2 mi Variable 2.3 mph - N/A   Scattered Clouds
11:20 AM 64.4 °F - 42.8 °F 45% 30.09 in 6.2 mi South 4.6 mph - N/A   Scattered Clouds
11:50 AM 66.2 °F - 42.8 °F 43% 30.09 in 6.2 mi SW 9.2 mph - N/A   Scattered Clouds
12:20 PM 66.2 °F - 41.0 °F 40% 30.09 in 6.2 mi SW 9.2 mph - N/A   Scattered Clouds
12:50 PM 66.2 °F - 42.8 °F 43% 30.06 in 6.2 mi WSW 9.2 mph - N/A   Scattered Clouds
1:20 PM 66.2 °F - 42.8 °F 43% 30.06 in 6.2 mi SW 8.1 mph - N/A   Scattered Clouds
1:50 PM 69.8 °F - 42.8 °F 38% 30.06 in 6.2 mi SSW 9.2 mph - N/A   Mostly Cloudy
2:00 PM 70 °F - 42 °F 25% 30.02 in 12 mi SSW 9.2 mph - -   Scattered Clouds
2:20 PM 68.0 °F - 42.8 °F 40% 30.06 in 6.2 mi SW 9.2 mph - N/A   Mostly Cloudy
2:50 PM 68.0 °F - 42.8 °F 40% 30.06 in 6.2 mi SW 10.4 mph - N/A   Mostly Cloudy
3:20 PM 68.0 °F - 42.8 °F 40% 30.06 in 6.2 mi WSW 10.4 mph - N/A   Mostly Cloudy
3:50 PM 66.2 °F - 42.8 °F 43% 30.06 in 6.2 mi SW 9.2 mph - N/A   Mostly Cloudy
4:20 PM 64.4 °F - 44.6 °F 49% 30.06 in 6.2 mi SW 4.6 mph - N/A   Mostly Cloudy
4:50 PM 62.6 °F - 44.6 °F 52% 30.06 in 6.2 mi SW 9.2 mph - N/A   Mostly Cloudy
5:20 PM 62.6 °F - 44.6 °F 52% 30.06 in 6.2 mi SSW 4.6 mph - N/A   Mostly Cloudy
5:50 PM 60.8 °F - 44.6 °F 55% 30.09 in 6.2 mi South 3.5 mph - N/A   Mostly Cloudy
6:20 PM 59.0 °F - 44.6 °F 59% 30.09 in 6.2 mi East 3.5 mph - N/A   Mostly Cloudy
6:50 PM 60.8 °F - 42.8 °F 52% 30.09 in 6.2 mi ESE 5.8 mph - N/A   Scattered Clouds
7:20 PM 57.2 °F - 42.8 °F 59% 30.09 in 6.2 mi Variable 2.3 mph - N/A   Scattered Clouds
7:50 PM 53.6 °F - 42.8 °F 67% 30.09 in - North 5.8 mph - N/A   Clear
8:00 PM 53 °F - 42 °F 57% 30.12 in 12 mi North 5.8 mph - -   Clear
8:20 PM 57.2 °F - 42.8 °F 59% 30.09 in - ENE 3.5 mph - N/A   Clear
8:50 PM 53.6 °F - 42.8 °F 67% 30.12 in - Variable 2.3 mph - N/A   Clear
9:20 PM 53.6 °F - 42.8 °F 67% 30.12 in - Variable 1.2 mph - N/A   Clear
9:50 PM 51.8 °F - 42.8 °F 71% 30.12 in - Variable 1.2 mph - N/A   Clear
10:20 PM 53.6 °F - 42.8 °F 67% 30.12 in - Variable 1.2 mph - N/A   Clear
10:50 PM 53.6 °F - 42.8 °F 67% 30.12 in - Variable 2.3 mph - N/A   Clear